Time,TemperatureF,DewpointF,PressureIn,WindDirection,WindDirectionDegrees,WindSpeedMPH,WindSpeedGustMPH,Humidity,HourlyPrecipIn,Conditions,Clouds,dailyrainin,SoftwareType,DateUTC
2013-01-18 00:04:00,39.5,21.1,30.30,West,277,0.0,0.0,47,0.00,,---,0.00,VWS V12.07,2013-01-18 07:04:00,
2013-01-18 00:09:00,38.8,20.9,30.30,West,277,0.0,0.0,48,0.00,,---,0.00,VWS V12.07,2013-01-18 07:09:00,
2013-01-18 00:14:00,38.3,20.9,30.30,West,277,0.0,0.0,49,0.00,,---,0.00,VWS V12.07,2013-01-18 07:14:00,
2013-01-18 00:19:00,38.0,20.8,30.30,West,277,0.0,0.0,50,0.00,,---,0.00,VWS V12.07,2013-01-18 07:19:00,
2013-01-18 00:24:00,38.1,20.8,30.30,West,277,0.0,0.0,49,0.00,,---,0.00,VWS V12.07,2013-01-18 07:24:00,
2013-01-18 00:29:00,38.3,21.0,30.30,West,277,0.0,0.0,49,0.00,,---,0.00,VWS V12.07,2013-01-18 07:29:00,
2013-01-18 00:30:00,38.0,20.7,30.29,West,277,0.0,0.0,49,0.00,,---,0.00,VWS V12.07,2013-01-18 07:30:00,
2013-01-18 00:34:00,38.1,20.9,30.30,West,277,0.0,0.0,50,0.00,,---,0.00,VWS V12.07,2013-01-18 07:34:00,
2013-01-18 00:39:00,37.5,20.8,30.30,West,277,0.0,0.0,50,0.00,,---,0.00,VWS V12.07,2013-01-18 07:39:00,
2013-01-18 00:44:00,37.0,20.5,30.29,West,277,0.0,0.0,51,0.00,,---,0.00,VWS V12.07,2013-01-18 07:44:00,
2013-01-18 00:49:00,36.7,20.6,30.29,West,277,0.0,0.0,52,0.00,,---,0.00,VWS V12.07,2013-01-18 07:49:00,
2013-01-18 00:54:00,36.3,20.5,30.30,West,277,0.0,0.0,52,0.00,,---,0.00,VWS V12.07,2013-01-18 07:54:00,
2013-01-18 00:59:00,36.1,20.5,30.29,West,277,0.0,0.0,53,0.00,,---,0.00,VWS V12.07,2013-01-18 07:59:00,
2013-01-18 01:00:00,36.2,20.4,30.30,West,277,0.0,0.0,52,0.00,,---,0.00,VWS V12.07,2013-01-18 08:00:00,
2013-01-18 01:04:00,35.9,20.4,30.29,West,277,0.0,0.0,53,0.00,,---,0.00,VWS V12.07,2013-01-18 08:04:00,
2013-01-18 01:09:00,35.8,20.5,30.29,West,277,0.0,0.0,53,0.00,,---,0.00,VWS V12.07,2013-01-18 08:09:00,
2013-01-18 01:14:00,35.5,20.4,30.29,West,277,0.0,0.0,54,0.00,,---,0.00,VWS V12.07,2013-01-18 08:14:00,
2013-01-18 01:19:00,35.5,20.4,30.29,West,277,0.0,0.0,54,0.00,,---,0.00,VWS V12.07,2013-01-18 08:19:00,
2013-01-18 01:24:00,35.3,20.2,30.29,West,277,0.0,0.0,54,0.00,,---,0.00,VWS V12.07,2013-01-18 08:24:00,
2013-01-18 01:29:00,34.9,20.3,30.29,West,277,0.0,0.0,55,0.00,,---,0.00,VWS V12.07,2013-01-18 08:29:00,
2013-01-18 01:30:00,35.2,20.3,30.29,West,277,0.0,0.0,54,0.00,,---,0.00,VWS V12.07,2013-01-18 08:30:00,
2013-01-18 01:34:00,34.7,20.2,30.29,West,277,0.0,0.0,55,0.00,,---,0.00,VWS V12.07,2013-01-18 08:34:00,
2013-01-18 01:39:00,34.6,20.2,30.29,West,277,0.0,0.0,55,0.00,,---,0.00,VWS V12.07,2013-01-18 08:39:00,
2013-01-18 01:44:00,34.5,20.2,30.29,West,277,0.0,0.0,55,0.00,,---,0.00,VWS V12.07,2013-01-18 08:44:00,
2013-01-18 01:49:00,34.3,20.1,30.30,West,277,0.0,0.0,56,0.00,,---,0.00,VWS V12.07,2013-01-18 08:49:00,
2013-01-18 01:54:00,34.0,20.0,30.29,West,277,0.0,0.0,56,0.00,,---,0.00,VWS V12.07,2013-01-18 08:54:00,
2013-01-18 01:59:00,33.5,19.9,30.30,West,277,0.0,0.0,57,0.00,,---,0.00,VWS V12.07,2013-01-18 08:59:00,
2013-01-18 02:00:00,33.9,20.0,30.30,West,277,0.0,0.0,56,0.00,,---,0.00,VWS V12.07,2013-01-18 09:00:00,
2013-01-18 02:04:00,33.1,19.7,30.29,West,277,0.0,0.0,58,0.00,,---,0.00,VWS V12.07,2013-01-18 09:04:00,
2013-01-18 02:09:00,32.9,19.8,30.30,West,277,0.0,0.0,58,0.00,,---,0.00,VWS V12.07,2013-01-18 09:09:00,
2013-01-18 02:14:00,32.6,19.7,30.29,West,277,0.0,0.0,59,0.00,,---,0.00,VWS V12.07,2013-01-18 09:14:00,
2013-01-18 02:19:00,32.3,19.6,30.29,West,277,0.0,0.0,59,0.00,,---,0.00,VWS V12.07,2013-01-18 09:19:00,
2013-01-18 02:24:00,32.2,19.6,30.29,West,277,0.0,0.0,59,0.00,,---,0.00,VWS V12.07,2013-01-18 09:24:00,
2013-01-18 02:29:00,31.9,19.6,30.29,West,277,0.0,0.0,60,0.00,,---,0.00,VWS V12.07,2013-01-18 09:29:00,
2013-01-18 02:30:00,32.2,19.7,30.29,West,277,0.0,0.0,59,0.00,,---,0.00,VWS V12.07,2013-01-18 09:30:00,
2013-01-18 02:34:00,31.6,19.5,30.29,West,277,0.0,0.0,60,0.00,,---,0.00,VWS V12.07,2013-01-18 09:34:00,
2013-01-18 02:39:00,31.4,19.4,30.29,West,277,0.0,0.0,61,0.00,,---,0.00,VWS V12.07,2013-01-18 09:39:00,
2013-01-18 02:44:00,31.4,19.6,30.28,West,277,0.0,0.0,61,0.00,,---,0.00,VWS V12.07,2013-01-18 09:44:00,
2013-01-18 02:49:00,31.2,19.6,30.28,West,277,0.0,0.0,62,0.00,,---,0.00,VWS V12.07,2013-01-18 09:49:00,
2013-01-18 02:54:00,31.3,19.7,30.28,West,277,0.0,0.0,62,0.00,,---,0.00,VWS V12.07,2013-01-18 09:54:00,
2013-01-18 02:59:00,31.6,19.9,30.28,West,277,0.0,0.0,62,0.00,,---,0.00,VWS V12.07,2013-01-18 09:59:00,
2013-01-18 03:00:00,31.5,19.9,30.28,West,277,0.0,0.0,62,0.00,,---,0.00,VWS V12.07,2013-01-18 10:00:00,
2013-01-18 03:04:00,32.2,20.3,30.28,West,277,0.0,0.0,61,0.00,,---,0.00,VWS V12.07,2013-01-18 10:04:00,
2013-01-18 03:09:00,32.3,20.3,30.28,West,277,0.0,0.0,61,0.00,,---,0.00,VWS V12.07,2013-01-18 10:09:00,
2013-01-18 03:14:00,32.6,20.5,30.28,WNW,290,0.0,2.9,60,0.00,,---,0.00,VWS V12.07,2013-01-18 10:14:00,
2013-01-18 03:19:00,33.1,20.7,30.27,WNW,290,0.0,2.9,60,0.00,,---,0.00,VWS V12.07,2013-01-18 10:19:00,
2013-01-18 03:24:00,33.7,21.0,30.27,WNW,290,0.0,2.9,59,0.00,,---,0.00,VWS V12.07,2013-01-18 10:24:00,
2013-01-18 03:29:00,34.2,21.1,30.27,WNW,290,0.0,2.9,58,0.00,,---,0.00,VWS V12.07,2013-01-18 10:29:00,
2013-01-18 03:30:00,33.9,21.0,30.27,WNW,290,0.0,2.9,59,0.00,,---,0.00,VWS V12.07,2013-01-18 10:30:00,
2013-01-18 03:34:00,34.5,21.2,30.27,NNW,335,0.0,2.9,58,0.00,,---,0.00,VWS V12.07,2013-01-18 10:34:00,
2013-01-18 03:39:00,34.5,21.2,30.27,WNW,290,0.0,5.8,58,0.00,,---,0.00,VWS V12.07,2013-01-18 10:39:00,
2013-01-18 03:44:00,34.5,21.1,30.27,WNW,297,1.8,6.5,58,0.00,,---,0.00,VWS V12.07,2013-01-18 10:44:00,
2013-01-18 03:49:00,34.4,21.0,30.27,NW,314,0.0,6.5,58,0.00,,---,0.00,VWS V12.07,2013-01-18 10:49:00,
2013-01-18 03:54:00,34.2,20.9,30.27,NW,308,0.0,6.5,58,0.00,,---,0.00,VWS V12.07,2013-01-18 10:54:00,
2013-01-18 03:59:00,34.0,20.9,30.27,North,353,2.9,6.5,58,0.00,,---,0.00,VWS V12.07,2013-01-18 10:59:00,
2013-01-18 04:00:00,34.2,21.0,30.27,WNW,297,0.0,6.5,58,0.00,,---,0.00,VWS V12.07,2013-01-18 11:00:00,
2013-01-18 04:04:00,33.9,20.8,30.27,North,353,0.0,6.5,58,0.00,,---,0.00,VWS V12.07,2013-01-18 11:04:00,
2013-01-18 04:09:00,33.7,20.7,30.26,North,353,0.0,6.5,58,0.00,,---,0.00,VWS V12.07,2013-01-18 11:09:00,
2013-01-18 04:14:00,33.5,20.6,30.26,North,353,0.0,6.5,59,0.00,,---,0.00,VWS V12.07,2013-01-18 11:14:00,
2013-01-18 04:19:00,33.3,20.5,30.26,North,353,0.0,6.5,59,0.00,,---,0.00,VWS V12.07,2013-01-18 11:19:00,
2013-01-18 04:24:00,33.0,20.4,30.26,NW,308,0.0,6.5,59,0.00,,---,0.00,VWS V12.07,2013-01-18 11:24:00,
2013-01-18 04:29:00,32.8,20.4,30.26,NW,308,0.0,6.5,60,0.00,,---,0.00,VWS V12.07,2013-01-18 11:29:00,
2013-01-18 04:30:00,32.9,20.4,30.26,NW,308,0.0,3.3,60,0.00,,---,0.00,VWS V12.07,2013-01-18 11:30:00,
2013-01-18 04:34:00,32.7,20.4,30.26,NW,308,0.0,6.5,60,0.00,,---,0.00,VWS V12.07,2013-01-18 11:34:00,
2013-01-18 04:39:00,32.6,20.3,30.26,NW,315,0.0,6.5,60,0.00,,---,0.00,VWS V12.07,2013-01-18 11:39:00,
2013-01-18 04:44:00,32.7,20.4,30.26,NW,311,0.0,6.5,60,0.00,,---,0.00,VWS V12.07,2013-01-18 11:44:00,
2013-01-18 04:49:00,32.8,20.5,30.26,NW,311,0.0,6.5,60,0.00,,---,0.00,VWS V12.07,2013-01-18 11:49:00,
2013-01-18 04:54:00,32.8,20.5,30.26,WNW,295,0.0,6.5,60,0.00,,---,0.00,VWS V12.07,2013-01-18 11:54:00,
2013-01-18 04:59:00,32.8,20.5,30.25,WNW,295,0.0,4.5,60,0.00,,---,0.00,VWS V12.07,2013-01-18 11:59:00,
2013-01-18 05:00:00,32.8,20.5,30.26,WNW,295,0.0,4.5,60,0.00,,---,0.00,VWS V12.07,2013-01-18 12:00:00,
2013-01-18 05:04:00,32.7,20.4,30.26,WNW,295,0.0,4.5,60,0.00,,---,0.00,VWS V12.07,2013-01-18 12:04:00,
2013-01-18 05:09:00,32.8,20.4,30.26,WNW,295,0.0,4.5,60,0.00,,---,0.00,VWS V12.07,2013-01-18 12:09:00,
2013-01-18 05:14:00,32.7,20.4,30.26,West,266,0.0,4.5,60,0.00,,---,0.00,VWS V12.07,2013-01-18 12:14:00,
2013-01-18 05:19:00,32.8,20.5,30.25,West,266,1.8,5.2,60,0.00,,---,0.00,VWS V12.07,2013-01-18 12:19:00,
2013-01-18 05:24:00,32.8,20.4,30.25,WNW,285,0.0,5.2,60,0.00,,---,0.00,VWS V12.07,2013-01-18 12:24:00,
2013-01-18 05:29:00,32.9,20.5,30.25,WNW,285,0.0,5.2,60,0.00,,---,0.00,VWS V12.07,2013-01-18 12:29:00,
2013-01-18 05:30:00,32.9,20.5,30.25,WNW,285,0.0,5.2,60,0.00,,---,0.00,VWS V12.07,2013-01-18 12:30:00,
2013-01-18 05:34:00,32.8,20.5,30.25,WNW,285,0.0,5.2,60,0.00,,---,0.00,VWS V12.07,2013-01-18 12:34:00,
2013-01-18 05:39:00,32.8,20.5,30.26,WNW,285,0.0,5.2,60,0.00,,---,0.00,VWS V12.07,2013-01-18 12:39:00,
2013-01-18 05:44:00,32.7,20.4,30.25,WNW,285,0.0,5.2,60,0.00,,---,0.00,VWS V12.07,2013-01-18 12:44:00,
2013-01-18 05:49:00,32.8,20.5,30.25,WNW,285,0.0,5.2,60,0.00,,---,0.00,VWS V12.07,2013-01-18 12:49:00,
2013-01-18 05:54:00,32.8,20.4,30.25,WNW,285,0.0,5.2,60,0.00,,---,0.00,VWS V12.07,2013-01-18 12:54:00,
2013-01-18 05:59:00,32.8,20.4,30.26,West,277,0.0,5.7,60,0.00,,---,0.00,VWS V12.07,2013-01-18 12:59:00,
2013-01-18 06:00:00,32.9,20.5,30.26,NW,307,3.4,5.7,60,0.00,,---,0.00,VWS V12.07,2013-01-18 13:00:00,
2013-01-18 06:04:00,32.9,20.5,30.26,WNW,300,0.0,5.7,60,0.00,,---,0.00,VWS V12.07,2013-01-18 13:04:00,
2013-01-18 06:09:00,32.9,20.5,30.26,WNW,294,5.7,6.0,60,0.00,,---,0.00,VWS V12.07,2013-01-18 13:09:00,
2013-01-18 06:14:00,32.9,20.5,30.26,NW,314,0.0,7.5,60,0.00,,---,0.00,VWS V12.07,2013-01-18 13:14:00,
2013-01-18 06:19:00,33.0,20.6,30.26,NNW,342,0.0,7.5,60,0.00,,---,0.00,VWS V12.07,2013-01-18 13:19:00,
2013-01-18 06:24:00,32.9,20.5,30.26,NNW,335,0.0,7.5,60,0.00,,---,0.00,VWS V12.07,2013-01-18 13:24:00,
2013-01-18 06:29:00,32.9,20.5,30.26,North,1,0.0,7.5,60,0.00,,---,0.00,VWS V12.07,2013-01-18 13:29:00,
2013-01-18 06:30:00,33.0,20.6,30.26,WNW,297,0.0,7.5,60,0.00,,---,0.00,VWS V12.07,2013-01-18 13:30:00,
2013-01-18 06:34:00,32.8,20.4,30.26,North,350,0.0,7.5,60,0.00,,---,0.00,VWS V12.07,2013-01-18 13:34:00,
2013-01-18 06:39:00,32.5,20.2,30.26,NW,326,0.0,7.5,60,0.00,,---,0.00,VWS V12.07,2013-01-18 13:39:00,
2013-01-18 06:44:00,32.2,20.2,30.26,North,350,0.0,7.5,61,0.00,,---,0.00,VWS V12.07,2013-01-18 13:44:00,
2013-01-18 06:49:00,31.9,20.1,30.26,North,350,0.0,7.5,61,0.00,,---,0.00,VWS V12.07,2013-01-18 13:49:00,
2013-01-18 06:54:00,31.5,19.9,30.27,NW,307,4.7,7.5,62,0.00,,---,0.00,VWS V12.07,2013-01-18 13:54:00,
2013-01-18 06:59:00,31.3,19.9,30.26,NNW,346,0.0,6.2,62,0.00,,---,0.00,VWS V12.07,2013-01-18 13:59:00,
2013-01-18 07:00:00,31.4,19.9,30.26,NNW,347,0.0,6.2,62,0.00,,---,0.00,VWS V12.07,2013-01-18 14:00:00,
2013-01-18 07:04:00,31.3,20.0,30.26,NW,323,0.0,6.3,63,0.00,,---,0.00,VWS V12.07,2013-01-18 14:04:00,
2013-01-18 07:09:00,31.2,20.0,30.26,NW,325,2.7,6.3,63,0.00,,---,0.00,VWS V12.07,2013-01-18 14:09:00,
2013-01-18 07:14:00,31.2,20.0,30.27,NNW,342,2.7,6.3,63,0.00,,---,0.00,VWS V12.07,2013-01-18 14:14:00,
2013-01-18 07:19:00,31.1,19.9,30.27,WNW,295,0.0,6.3,63,0.00,,---,0.00,VWS V12.07,2013-01-18 14:19:00,
2013-01-18 07:24:00,31.1,20.0,30.27,WNW,295,0.0,6.3,63,0.00,,---,0.00,VWS V12.07,2013-01-18 14:24:00,
2013-01-18 07:29:00,31.1,20.0,30.27,WNW,295,0.0,6.3,63,0.00,,---,0.00,VWS V12.07,2013-01-18 14:29:00,
2013-01-18 07:30:00,31.1,20.0,30.27,WNW,295,0.0,6.3,63,0.00,,---,0.00,VWS V12.07,2013-01-18 14:30:00,
2013-01-18 07:34:00,31.1,20.0,30.27,North,359,0.0,6.3,63,0.00,,---,0.00,VWS V12.07,2013-01-18 14:34:00,
2013-01-18 07:39:00,31.1,20.0,30.28,NNW,342,2.9,6.3,63,0.00,,---,0.00,VWS V12.07,2013-01-18 14:39:00,
2013-01-18 07:44:00,31.0,20.0,30.28,NNW,339,0.0,6.3,63,0.00,,---,0.00,VWS V12.07,2013-01-18 14:44:00,
2013-01-18 07:49:00,31.0,20.0,30.28,WNW,295,0.0,6.3,63,0.00,,---,0.00,VWS V12.07,2013-01-18 14:49:00,
2013-01-18 07:54:00,30.9,19.9,30.28,WNW,295,0.0,6.3,63,0.00,,---,0.00,VWS V12.07,2013-01-18 14:54:00,
2013-01-18 07:59:00,31.0,20.0,30.28,NNW,332,0.0,5.8,63,0.00,,---,0.00,VWS V12.07,2013-01-18 14:59:00,
2013-01-18 08:00:00,31.0,20.0,30.28,NNW,328,2.5,5.8,63,0.00,,---,0.00,VWS V12.07,2013-01-18 15:00:00,
2013-01-18 08:04:00,31.2,20.0,30.28,NNW,329,0.0,5.8,63,0.00,,---,0.00,VWS V12.07,2013-01-18 15:04:00,
2013-01-18 08:09:00,31.4,20.0,30.28,North,350,3.2,6.5,62,0.00,,---,0.00,VWS V12.07,2013-01-18 15:09:00,
2013-01-18 08:14:00,31.7,20.2,30.28,NW,318,0.0,6.5,62,0.00,,---,0.00,VWS V12.07,2013-01-18 15:14:00,
2013-01-18 08:19:00,31.9,20.3,30.28,North,353,4.3,6.5,62,0.00,,---,0.00,VWS V12.07,2013-01-18 15:19:00,
2013-01-18 08:24:00,32.1,20.4,30.28,NNW,346,0.0,6.5,62,0.00,,---,0.00,VWS V12.07,2013-01-18 15:24:00,
2013-01-18 08:29:00,32.3,20.5,30.28,North,352,0.0,6.5,61,0.00,,---,0.00,VWS V12.07,2013-01-18 15:29:00,
2013-01-18 08:30:00,32.1,20.4,30.28,NNW,347,0.0,6.5,62,0.00,,---,0.00,VWS V12.07,2013-01-18 15:30:00,
2013-01-18 08:34:00,32.4,20.5,30.28,NW,323,0.0,6.5,61,0.00,,---,0.00,VWS V12.07,2013-01-18 15:34:00,
2013-01-18 08:39:00,32.7,20.7,30.29,NNW,333,0.0,7.2,61,0.00,,---,0.00,VWS V12.07,2013-01-18 15:39:00,
2013-01-18 08:44:00,33.0,20.8,30.29,North,359,2.6,7.5,60,0.00,,---,0.00,VWS V12.07,2013-01-18 15:44:00,
2013-01-18 08:49:00,33.4,21.0,30.29,North,3,3.4,7.5,60,0.00,,---,0.00,VWS V12.07,2013-01-18 15:49:00,
2013-01-18 08:54:00,33.7,21.1,30.29,NNW,338,0.0,7.5,60,0.00,,---,0.00,VWS V12.07,2013-01-18 15:54:00,
2013-01-18 08:59:00,34.1,21.3,30.29,North,359,0.0,7.5,59,0.00,,---,0.00,VWS V12.07,2013-01-18 15:59:00,
2013-01-18 09:00:00,33.8,21.2,30.29,North,350,3.5,7.5,59,0.00,,---,0.00,VWS V12.07,2013-01-18 16:00:00,
2013-01-18 09:04:00,34.6,21.6,30.29,North,3,2.9,7.5,58,0.00,,---,0.00,VWS V12.07,2013-01-18 16:04:00,
2013-01-18 09:09:00,35.0,21.6,30.29,NNW,340,2.7,7.5,58,0.00,,---,0.00,VWS V12.07,2013-01-18 16:09:00,
2013-01-18 09:14:00,35.5,21.8,30.29,NNW,328,0.0,7.5,57,0.00,,---,0.00,VWS V12.07,2013-01-18 16:14:00,
2013-01-18 09:19:00,36.0,22.0,30.29,North,3,0.0,7.5,56,0.00,,---,0.00,VWS V12.07,2013-01-18 16:19:00,
2013-01-18 09:24:00,36.5,22.2,30.29,NW,318,0.0,7.5,56,0.00,,---,0.00,VWS V12.07,2013-01-18 16:24:00,
2013-01-18 09:29:00,37.2,22.6,30.30,NNW,329,0.0,7.5,55,0.00,,---,0.00,VWS V12.07,2013-01-18 16:29:00,
2013-01-18 09:30:00,36.7,22.3,30.30,NNW,329,0.0,7.4,56,0.00,,---,0.00,VWS V12.07,2013-01-18 16:30:00,
2013-01-18 09:34:00,37.8,22.8,30.30,North,7,0.0,7.5,54,0.00,,---,0.00,VWS V12.07,2013-01-18 16:34:00,
2013-01-18 09:39:00,38.3,22.9,30.30,North,7,0.0,7.5,54,0.00,,---,0.00,VWS V12.07,2013-01-18 16:39:00,
2013-01-18 09:44:00,38.9,23.1,30.30,North,352,0.0,7.5,53,0.00,,---,0.00,VWS V12.07,2013-01-18 16:44:00,
2013-01-18 09:49:00,39.6,23.4,30.30,NNW,343,0.0,7.5,52,0.00,,---,0.00,VWS V12.07,2013-01-18 16:49:00,
2013-01-18 09:54:00,40.2,23.5,30.30,NNW,343,0.0,7.5,51,0.00,,---,0.00,VWS V12.07,2013-01-18 16:54:00,
2013-01-18 09:59:00,40.8,23.8,30.30,NNW,328,0.0,7.5,50,0.00,,---,0.00,VWS V12.07,2013-01-18 16:59:00,
2013-01-18 10:04:00,41.5,24.0,30.31,NNE,30,0.0,7.5,50,0.00,,---,0.00,VWS V12.07,2013-01-18 17:04:00,
2013-01-18 10:09:00,42.0,24.1,30.31,NNE,30,0.0,7.5,49,0.00,,---,0.00,VWS V12.07,2013-01-18 17:09:00,
2013-01-18 10:14:00,42.4,24.0,30.31,NNE,30,0.0,7.5,48,0.00,,---,0.00,VWS V12.07,2013-01-18 17:14:00,
2013-01-18 10:19:00,42.7,23.9,30.31,NNE,30,0.0,7.5,47,0.00,,---,0.00,VWS V12.07,2013-01-18 17:19:00,
2013-01-18 10:24:00,43.1,23.9,30.31,NNE,30,0.0,7.5,46,0.00,,---,0.00,VWS V12.07,2013-01-18 17:24:00,
2013-01-18 10:29:00,43.4,23.8,30.31,NNE,30,0.0,7.5,46,0.00,,---,0.00,VWS V12.07,2013-01-18 17:29:00,
2013-01-18 10:34:00,43.6,23.8,30.31,NNE,30,0.0,7.5,45,0.00,,---,0.00,VWS V12.07,2013-01-18 17:34:00,
2013-01-18 10:39:00,44.1,23.9,30.31,NNE,30,0.0,7.5,45,0.00,,---,0.00,VWS V12.07,2013-01-18 17:39:00,
2013-01-18 10:44:00,44.7,24.2,30.30,NNE,30,0.0,7.5,44,0.00,,---,0.00,VWS V12.07,2013-01-18 17:44:00,
2013-01-18 10:49:00,45.0,24.0,30.30,NNE,30,0.0,7.5,43,0.00,,---,0.00,VWS V12.07,2013-01-18 17:49:00,
2013-01-18 10:54:00,45.3,24.2,30.30,NNE,30,0.0,7.5,43,0.00,,---,0.00,VWS V12.07,2013-01-18 17:54:00,
2013-01-18 10:59:00,45.7,24.2,30.29,NNE,30,0.0,7.5,42,0.00,,---,0.00,VWS V12.07,2013-01-18 17:59:00,
2013-01-18 11:04:00,46.3,24.4,30.29,NNE,30,0.0,7.5,42,0.00,,---,0.00,VWS V12.07,2013-01-18 18:04:00,
2013-01-18 11:09:00,46.8,24.4,30.29,NNE,30,0.0,7.5,41,0.00,,---,0.00,VWS V12.07,2013-01-18 18:09:00,
2013-01-18 11:14:00,47.2,24.5,30.29,NNE,30,0.0,7.5,41,0.00,,---,0.00,VWS V12.07,2013-01-18 18:14:00,
2013-01-18 11:19:00,47.6,24.6,30.29,NNE,30,0.0,7.5,40,0.00,,---,0.00,VWS V12.07,2013-01-18 18:19:00,
2013-01-18 11:24:00,48.1,24.6,30.28,NNE,30,0.0,7.5,40,0.00,,---,0.00,VWS V12.07,2013-01-18 18:24:00,
2013-01-18 11:29:00,48.9,24.9,30.28,NNE,30,0.0,7.5,39,0.00,,---,0.00,VWS V12.07,2013-01-18 18:29:00,
2013-01-18 11:34:00,49.4,24.8,30.28,NNE,30,0.0,7.5,38,0.00,,---,0.00,VWS V12.07,2013-01-18 18:34:00,
2013-01-18 11:39:00,49.7,24.5,30.27,NNE,30,0.0,7.5,37,0.00,,---,0.00,VWS V12.07,2013-01-18 18:39:00,
2013-01-18 11:44:00,50.1,24.7,30.27,NNE,30,0.0,7.5,37,0.00,,---,0.00,VWS V12.07,2013-01-18 18:44:00,
2013-01-18 11:49:00,50.8,24.8,30.27,NNE,30,0.0,7.5,36,0.00,,---,0.00,VWS V12.07,2013-01-18 18:49:00,
2013-01-18 11:54:00,51.3,24.7,30.26,NNE,30,0.0,7.5,35,0.00,,---,0.00,VWS V12.07,2013-01-18 18:54:00,
2013-01-18 11:59:00,51.9,24.7,30.26,NNE,30,0.0,7.5,34,0.00,,---,0.00,VWS V12.07,2013-01-18 18:59:00,
2013-01-18 12:04:00,52.6,24.8,30.26,NNE,30,0.0,7.5,34,0.00,,---,0.00,VWS V12.07,2013-01-18 19:04:00,
2013-01-18 12:09:00,52.8,25.1,30.25,NNE,30,0.0,7.5,34,0.00,,---,0.00,VWS V12.07,2013-01-18 19:09:00,
2013-01-18 12:14:00,53.2,24.7,30.24,NNE,30,0.0,7.5,33,0.00,,---,0.00,VWS V12.07,2013-01-18 19:14:00,
2013-01-18 12:19:00,53.7,24.6,30.24,NNE,30,0.0,7.5,32,0.00,,---,0.00,VWS V12.07,2013-01-18 19:19:00,
2013-01-18 12:24:00,54.2,24.3,30.23,NNE,30,0.0,7.5,31,0.00,,---,0.00,VWS V12.07,2013-01-18 19:24:00,
2013-01-18 12:29:00,54.3,24.5,30.23,NNE,30,0.0,7.5,31,0.00,,---,0.00,VWS V12.07,2013-01-18 19:29:00,
2013-01-18 12:35:00,54.7,24.3,30.22,NNE,30,0.0,7.5,30,0.00,,---,0.00,VWS V12.07,2013-01-18 19:35:00,
2013-01-18 12:40:00,54.9,24.4,30.22,NNE,30,0.0,7.5,30,0.00,,---,0.00,VWS V12.07,2013-01-18 19:40:00,
2013-01-18 12:45:00,55.7,24.7,30.21,NNE,30,0.0,7.5,30,0.00,,---,0.00,VWS V12.07,2013-01-18 19:45:00,
2013-01-18 12:50:00,56.1,24.3,30.21,NNE,30,0.0,7.5,29,0.00,,---,0.00,VWS V12.07,2013-01-18 19:50:00,
2013-01-18 12:55:00,56.5,24.7,30.20,NNE,30,0.0,7.5,29,0.00,,---,0.00,VWS V12.07,2013-01-18 19:55:00,
2013-01-18 13:00:00,57.2,24.6,30.20,NNE,30,0.0,7.5,28,0.00,,---,0.00,VWS V12.07,2013-01-18 20:00:00,
2013-01-18 13:05:00,57.3,24.4,30.20,NNE,30,0.0,7.5,28,0.00,,---,0.00,VWS V12.07,2013-01-18 20:05:00,
2013-01-18 13:10:00,57.0,24.3,30.19,ESE,115,0.0,7.5,28,0.00,,---,0.00,VWS V12.07,2013-01-18 20:10:00,
2013-01-18 13:15:00,57.2,24.4,30.19,ESE,115,0.0,7.5,28,0.00,,---,0.00,VWS V12.07,2013-01-18 20:15:00,
2013-01-18 13:20:00,57.3,24.1,30.19,ESE,115,0.0,7.5,28,0.00,,---,0.00,VWS V12.07,2013-01-18 20:20:00,
2013-01-18 13:25:00,57.6,24.7,30.18,ESE,115,0.0,7.5,28,0.00,,---,0.00,VWS V12.07,2013-01-18 20:25:00,
2013-01-18 13:30:00,58.0,24.3,30.18,East,87,0.0,7.5,27,0.00,,---,0.00,VWS V12.07,2013-01-18 20:30:00,
2013-01-18 13:35:00,58.4,24.2,30.18,NE,35,0.0,7.5,27,0.00,,---,0.00,VWS V12.07,2013-01-18 20:35:00,
2013-01-18 13:40:00,58.5,24.1,30.18,NE,35,0.0,7.5,26,0.00,,---,0.00,VWS V12.07,2013-01-18 20:40:00,
2013-01-18 13:45:00,58.5,24.3,30.18,East,82,0.0,7.5,27,0.00,,---,0.00,VWS V12.07,2013-01-18 20:45:00,
2013-01-18 13:50:00,58.9,24.1,30.17,East,96,2.7,7.5,26,0.00,,---,0.00,VWS V12.07,2013-01-18 20:50:00,
2013-01-18 13:55:00,58.8,24.1,30.17,East,89,0.0,7.5,26,0.00,,---,0.00,VWS V12.07,2013-01-18 20:55:00,
2013-01-18 14:00:00,58.7,24.3,30.17,East,89,0.0,7.5,26,0.00,,---,0.00,VWS V12.07,2013-01-18 21:00:00,
2013-01-18 14:05:00,59.3,24.1,30.17,East,89,0.0,7.5,26,0.00,,---,0.00,VWS V12.07,2013-01-18 21:05:00,
2013-01-18 14:10:00,60.1,24.1,30.17,East,89,0.0,7.5,25,0.00,,---,0.00,VWS V12.07,2013-01-18 21:10:00,
2013-01-18 14:15:00,60.6,24.2,30.16,East,89,0.0,7.5,25,0.00,,---,0.00,VWS V12.07,2013-01-18 21:15:00,
2013-01-18 14:20:00,60.9,24.1,30.16,East,89,0.0,7.5,24,0.00,,---,0.00,VWS V12.07,2013-01-18 21:20:00,
2013-01-18 14:25:00,60.5,23.9,30.16,West,267,0.0,7.5,24,0.00,,---,0.00,VWS V12.07,2013-01-18 21:25:00,
2013-01-18 14:30:00,60.6,24.0,30.16,West,267,0.0,7.5,24,0.00,,---,0.00,VWS V12.07,2013-01-18 21:30:00,
2013-01-18 14:35:00,61.0,24.4,30.16,West,267,0.0,7.5,24,0.00,,---,0.00,VWS V12.07,2013-01-18 21:35:00,
2013-01-18 14:40:00,61.3,23.9,30.16,West,267,0.0,7.5,24,0.00,,---,0.00,VWS V12.07,2013-01-18 21:40:00,
2013-01-18 14:45:00,61.1,23.8,30.16,West,267,0.0,7.5,24,0.00,,---,0.00,VWS V12.07,2013-01-18 21:45:00,
2013-01-18 14:50:00,61.1,23.5,30.15,West,267,0.0,7.5,23,0.00,,---,0.00,VWS V12.07,2013-01-18 21:50:00,
2013-01-18 14:55:00,61.2,23.6,30.15,West,267,0.0,7.5,24,0.00,,---,0.00,VWS V12.07,2013-01-18 21:55:00,
2013-01-18 15:01:00,61.7,23.5,30.16,West,267,0.0,7.5,23,0.00,,---,0.00,VWS V12.07,2013-01-18 22:01:00,
2013-01-18 15:06:00,62.2,23.8,30.16,West,267,0.0,7.5,23,0.00,,---,0.00,VWS V12.07,2013-01-18 22:06:00,
2013-01-18 15:11:00,62.9,23.8,30.15,West,267,0.0,7.5,22,0.00,,---,0.00,VWS V12.07,2013-01-18 22:11:00,
2013-01-18 15:16:00,62.9,23.2,30.16,West,267,0.0,7.5,22,0.00,,---,0.00,VWS V12.07,2013-01-18 22:16:00,
2013-01-18 15:21:00,62.4,23.2,30.16,NE,46,0.0,7.5,22,0.00,,---,0.00,VWS V12.07,2013-01-18 22:21:00,
2013-01-18 15:26:00,62.0,23.1,30.16,NE,46,0.0,7.5,22,0.00,,---,0.00,VWS V12.07,2013-01-18 22:26:00,
2013-01-18 15:31:00,61.9,23.1,30.16,NE,46,0.0,7.5,22,0.00,,---,0.00,VWS V12.07,2013-01-18 22:31:00,
2013-01-18 15:36:00,62.2,23.3,30.15,NE,46,0.0,7.5,22,0.00,,---,0.00,VWS V12.07,2013-01-18 22:36:00,
2013-01-18 15:41:00,62.3,23.0,30.15,NE,46,0.0,7.5,22,0.00,,---,0.00,VWS V12.07,2013-01-18 22:41:00,
2013-01-18 15:46:00,62.3,23.0,30.16,NE,46,0.0,7.5,22,0.00,,---,0.00,VWS V12.07,2013-01-18 22:46:00,
2013-01-18 15:51:00,62.3,23.3,30.15,NE,46,0.0,7.5,22,0.00,,---,0.00,VWS V12.07,2013-01-18 22:51:00,
2013-01-18 15:56:00,62.5,23.0,30.15,NNE,27,0.0,7.5,22,0.00,,---,0.00,VWS V12.07,2013-01-18 22:56:00,
2013-01-18 16:01:00,62.6,22.9,30.15,NNE,27,0.0,7.5,22,0.00,,---,0.00,VWS V12.07,2013-01-18 23:01:00,
2013-01-18 16:06:00,62.6,22.6,30.15,NNE,27,0.0,7.5,21,0.00,,---,0.00,VWS V12.07,2013-01-18 23:06:00,
2013-01-18 16:11:00,62.6,22.7,30.15,NNE,27,0.0,7.5,22,0.00,,---,0.00,VWS V12.07,2013-01-18 23:11:00,
2013-01-18 16:16:00,62.6,22.4,30.15,NNE,27,0.0,7.5,21,0.00,,---,0.00,VWS V12.07,2013-01-18 23:16:00,
2013-01-18 16:21:00,62.7,22.7,30.15,NNE,27,0.0,7.5,21,0.00,,---,0.00,VWS V12.07,2013-01-18 23:21:00,
2013-01-18 16:26:00,62.5,22.5,30.16,NNE,27,0.0,7.5,21,0.00,,---,0.00,VWS V12.07,2013-01-18 23:26:00,
2013-01-18 16:31:00,62.6,22.7,30.16,NNE,27,0.0,7.5,22,0.00,,---,0.00,VWS V12.07,2013-01-18 23:31:00,
2013-01-18 16:36:00,62.6,23.0,30.16,NNE,27,0.0,7.5,22,0.00,,---,0.00,VWS V12.07,2013-01-18 23:36:00,
2013-01-18 16:41:00,62.4,22.8,30.16,East,84,0.0,7.5,22,0.00,,---,0.00,VWS V12.07,2013-01-18 23:41:00,
2013-01-18 16:46:00,62.1,22.5,30.16,East,84,0.0,7.5,22,0.00,,---,0.00,VWS V12.07,2013-01-18 23:46:00,
2013-01-18 16:51:00,62.0,22.6,30.16,East,84,0.0,7.5,22,0.00,,---,0.00,VWS V12.07,2013-01-18 23:51:00,
2013-01-18 16:56:00,61.7,22.6,30.16,East,84,0.0,7.5,22,0.00,,---,0.00,VWS V12.07,2013-01-18 23:56:00,
2013-01-18 17:01:00,61.6,22.5,30.16,East,84,0.0,7.5,22,0.00,,---,0.00,VWS V12.07,2013-01-19 00:01:00,
2013-01-18 17:06:00,61.6,22.8,30.17,East,84,0.0,7.5,22,0.00,,---,0.00,VWS V12.07,2013-01-19 00:06:00,
2013-01-18 17:11:00,61.4,23.4,30.17,East,84,0.0,7.5,23,0.00,,---,0.00,VWS V12.07,2013-01-19 00:11:00,
2013-01-18 17:16:00,61.3,24.0,30.17,East,84,0.0,7.5,24,0.00,,---,0.00,VWS V12.07,2013-01-19 00:16:00,
2013-01-18 17:21:00,60.8,24.2,30.17,East,84,0.0,7.5,24,0.00,,---,0.00,VWS V12.07,2013-01-19 00:21:00,
2013-01-18 17:26:00,60.5,24.1,30.17,East,84,0.0,7.5,25,0.00,,---,0.00,VWS V12.07,2013-01-19 00:26:00,
2013-01-18 17:31:00,59.5,23.7,30.17,East,84,0.0,7.5,25,0.00,,---,0.00,VWS V12.07,2013-01-19 00:31:00,
2013-01-18 17:37:00,58.3,24.1,30.17,East,84,0.0,7.5,27,0.00,,---,0.00,VWS V12.07,2013-01-19 00:37:00,
2013-01-18 17:42:00,56.5,24.2,30.18,East,84,0.0,7.5,28,0.00,,---,0.00,VWS V12.07,2013-01-19 00:42:00,
2013-01-18 17:47:00,55.0,24.2,30.18,East,84,0.0,7.5,30,0.00,,---,0.00,VWS V12.07,2013-01-19 00:47:00,
2013-01-18 17:52:00,53.6,23.8,30.18,East,84,0.0,7.5,31,0.00,,---,0.00,VWS V12.07,2013-01-19 00:52:00,
2013-01-18 17:57:00,53.1,23.8,30.18,East,84,0.0,7.5,32,0.00,,---,0.00,VWS V12.07,2013-01-19 00:57:00,
2013-01-18 18:02:00,52.0,23.7,30.18,WSW,250,0.0,7.5,33,0.00,,---,0.00,VWS V12.07,2013-01-19 01:02:00,
2013-01-18 18:07:00,51.6,23.8,30.19,WSW,250,0.0,7.5,34,0.00,,---,0.00,VWS V12.07,2013-01-19 01:07:00,
2013-01-18 18:12:00,50.9,23.5,30.19,West,269,0.0,7.5,34,0.00,,---,0.00,VWS V12.07,2013-01-19 01:12:00,
2013-01-18 18:17:00,50.6,23.8,30.19,West,269,0.0,7.5,35,0.00,,---,0.00,VWS V12.07,2013-01-19 01:17:00,
2013-01-18 18:22:00,50.3,23.7,30.18,West,269,0.0,7.5,35,0.00,,---,0.00,VWS V12.07,2013-01-19 01:22:00,
2013-01-18 18:27:00,50.3,23.8,30.18,West,269,0.0,7.5,35,0.00,,---,0.00,VWS V12.07,2013-01-19 01:27:00,
2013-01-18 18:32:00,50.1,23.7,30.18,West,269,0.0,7.5,35,0.00,,---,0.00,VWS V12.07,2013-01-19 01:32:00,
2013-01-18 18:37:00,50.1,23.7,30.18,West,269,0.0,7.5,35,0.00,,---,0.00,VWS V12.07,2013-01-19 01:37:00,
2013-01-18 18:42:00,49.9,23.8,30.19,West,269,0.0,7.5,36,0.00,,---,0.00,VWS V12.07,2013-01-19 01:42:00,
2013-01-18 18:47:00,49.6,23.7,30.19,West,269,0.0,7.5,36,0.00,,---,0.00,VWS V12.07,2013-01-19 01:47:00,
2013-01-18 18:52:00,49.3,23.8,30.19,West,269,0.0,7.5,36,0.00,,---,0.00,VWS V12.07,2013-01-19 01:52:00,
2013-01-18 18:57:00,48.8,23.8,30.19,West,269,0.0,7.5,37,0.00,,---,0.00,VWS V12.07,2013-01-19 01:57:00,
2013-01-18 19:02:00,48.5,23.9,30.19,West,269,0.0,7.5,38,0.00,,---,0.00,VWS V12.07,2013-01-19 02:02:00,
2013-01-18 19:07:00,48.1,23.6,30.19,West,269,0.0,7.5,38,0.00,,---,0.00,VWS V12.07,2013-01-19 02:07:00,
2013-01-18 19:12:00,47.8,23.9,30.19,West,269,0.0,7.5,39,0.00,,---,0.00,VWS V12.07,2013-01-19 02:12:00,
2013-01-18 19:17:00,47.3,23.7,30.19,NE,45,0.0,7.5,39,0.00,,---,0.00,VWS V12.07,2013-01-19 02:17:00,
2013-01-18 19:22:00,46.6,23.3,30.19,NE,45,0.0,7.5,40,0.00,,---,0.00,VWS V12.07,2013-01-19 02:22:00,
2013-01-18 19:27:00,45.8,23.1,30.19,NE,45,0.0,7.5,40,0.00,,---,0.00,VWS V12.07,2013-01-19 02:27:00,
2013-01-18 19:32:00,44.7,23.0,30.19,NE,45,0.0,7.5,42,0.00,,---,0.00,VWS V12.07,2013-01-19 02:32:00,
2013-01-18 19:37:00,44.0,23.0,30.19,NE,45,0.0,7.5,43,0.00,,---,0.00,VWS V12.07,2013-01-19 02:37:00,
2013-01-18 19:42:00,43.7,23.0,30.20,NE,45,0.0,7.5,44,0.00,,---,0.00,VWS V12.07,2013-01-19 02:42:00,
2013-01-18 19:47:00,43.8,23.2,30.20,NE,45,0.0,7.5,44,0.00,,---,0.00,VWS V12.07,2013-01-19 02:47:00,
2013-01-18 19:52:00,43.9,23.2,30.20,NE,45,0.0,7.5,44,0.00,,---,0.00,VWS V12.07,2013-01-19 02:52:00,
2013-01-18 19:57:00,44.1,23.4,30.20,NE,45,0.0,7.5,44,0.00,,---,0.00,VWS V12.07,2013-01-19 02:57:00,
2013-01-18 20:02:00,44.1,23.3,30.20,NE,45,0.0,7.5,43,0.00,,---,0.00,VWS V12.07,2013-01-19 03:02:00,
2013-01-18 20:07:00,44.1,23.3,30.20,NE,45,0.0,7.5,43,0.00,,---,0.00,VWS V12.07,2013-01-19 03:07:00,
2013-01-18 20:12:00,44.2,23.4,30.20,NE,45,0.0,7.5,43,0.00,,---,0.00,VWS V12.07,2013-01-19 03:12:00,
2013-01-18 20:17:00,44.2,23.3,30.20,NE,45,0.0,7.5,43,0.00,,---,0.00,VWS V12.07,2013-01-19 03:17:00,
2013-01-18 20:22:00,44.3,23.3,30.20,NE,45,0.0,7.5,43,0.00,,---,0.00,VWS V12.07,2013-01-19 03:22:00,
2013-01-18 20:27:00,44.3,23.3,30.20,NE,45,0.0,7.5,43,0.00,,---,0.00,VWS V12.07,2013-01-19 03:27:00,
2013-01-18 20:33:00,44.1,23.4,30.20,NE,45,0.0,7.5,44,0.00,,---,0.00,VWS V12.07,2013-01-19 03:33:00,
2013-01-18 20:38:00,43.6,23.4,30.20,NE,45,0.0,7.5,44,0.00,,---,0.00,VWS V12.07,2013-01-19 03:38:00,
2013-01-18 20:43:00,43.4,23.5,30.21,NE,45,0.0,7.5,45,0.00,,---,0.00,VWS V12.07,2013-01-19 03:43:00,
2013-01-18 20:48:00,43.3,23.6,30.21,NE,45,0.0,7.5,45,0.00,,---,0.00,VWS V12.07,2013-01-19 03:48:00,
2013-01-18 20:53:00,43.4,23.6,30.21,NE,45,0.0,7.5,45,0.00,,---,0.00,VWS V12.07,2013-01-19 03:53:00,
2013-01-18 20:58:00,43.3,23.7,30.21,NE,45,0.0,7.5,46,0.00,,---,0.00,VWS V12.07,2013-01-19 03:58:00,
2013-01-18 21:03:00,43.5,23.9,30.21,NE,45,0.0,7.5,46,0.00,,---,0.00,VWS V12.07,2013-01-19 04:03:00,
2013-01-18 21:08:00,43.5,24.0,30.21,NE,45,0.0,7.5,46,0.00,,---,0.00,VWS V12.07,2013-01-19 04:08:00,
2013-01-18 21:13:00,43.5,24.0,30.21,NE,45,0.0,7.5,46,0.00,,---,0.00,VWS V12.07,2013-01-19 04:13:00,
2013-01-18 21:18:00,43.5,24.1,30.21,NE,45,0.0,7.5,46,0.00,,---,0.00,VWS V12.07,2013-01-19 04:18:00,
2013-01-18 21:23:00,43.6,24.1,30.21,NE,45,0.0,7.5,46,0.00,,---,0.00,VWS V12.07,2013-01-19 04:23:00,
2013-01-18 21:28:00,43.7,24.2,30.21,NE,45,0.0,7.5,46,0.00,,---,0.00,VWS V12.07,2013-01-19 04:28:00,
2013-01-18 21:33:00,43.7,24.3,30.21,NE,45,0.0,7.5,46,0.00,,---,0.00,VWS V12.07,2013-01-19 04:33:00,
2013-01-18 21:38:00,43.7,24.3,30.21,NE,45,0.0,7.5,46,0.00,,---,0.00,VWS V12.07,2013-01-19 04:38:00,
2013-01-18 21:43:00,43.7,24.4,30.21,NE,45,0.0,7.5,46,0.00,,---,0.00,VWS V12.07,2013-01-19 04:43:00,
2013-01-18 21:48:00,43.7,24.4,30.21,NE,45,0.0,7.5,46,0.00,,---,0.00,VWS V12.07,2013-01-19 04:48:00,
2013-01-18 21:53:00,43.7,24.5,30.21,NE,45,0.0,7.5,46,0.00,,---,0.00,VWS V12.07,2013-01-19 04:53:00,
2013-01-18 21:58:00,43.7,24.5,30.21,NE,45,0.0,7.5,46,0.00,,---,0.00,VWS V12.07,2013-01-19 04:58:00,
2013-01-18 22:00:00,43.7,24.5,30.21,NE,45,0.0,7.5,46,0.00,,---,0.00,VWS V12.07,2013-01-19 05:00:00,
2013-01-18 22:01:00,43.7,24.5,30.21,NE,45,0.0,7.5,46,0.00,,---,0.00,VWS V12.07,2013-01-19 05:01:00,
2013-01-18 22:03:00,43.7,24.5,30.21,NE,45,0.0,7.5,46,0.00,,---,0.00,VWS V12.07,2013-01-19 05:03:00,
2013-01-18 22:08:00,43.5,24.5,30.21,NE,45,0.0,7.5,47,0.00,,---,0.00,VWS V12.07,2013-01-19 05:08:00,
2013-01-18 22:13:00,43.1,24.3,30.21,NE,45,0.0,7.5,47,0.00,,---,0.00,VWS V12.07,2013-01-19 05:13:00,
2013-01-18 22:18:00,42.7,24.1,30.21,NE,45,0.0,7.5,47,0.00,,---,0.00,VWS V12.07,2013-01-19 05:18:00,
2013-01-18 22:23:00,42.4,24.1,30.21,NE,45,0.0,7.5,48,0.00,,---,0.00,VWS V12.07,2013-01-19 05:23:00,
2013-01-18 22:28:00,42.2,24.0,30.21,NE,45,0.0,7.5,48,0.00,,---,0.00,VWS V12.07,2013-01-19 05:28:00,
2013-01-18 22:33:00,41.9,24.0,30.21,NE,45,0.0,7.5,49,0.00,,---,0.00,VWS V12.07,2013-01-19 05:33:00,
2013-01-18 22:38:00,41.8,24.0,30.22,NE,45,0.0,7.5,49,0.00,,---,0.00,VWS V12.07,2013-01-19 05:38:00,
2013-01-18 22:43:00,41.8,24.0,30.21,NE,45,0.0,7.5,49,0.00,,---,0.00,VWS V12.07,2013-01-19 05:43:00,
2013-01-18 22:48:00,41.7,24.0,30.22,NE,45,0.0,7.5,49,0.00,,---,0.00,VWS V12.07,2013-01-19 05:48:00,
2013-01-18 22:53:00,41.5,23.8,30.22,NE,45,0.0,7.5,49,0.00,,---,0.00,VWS V12.07,2013-01-19 05:53:00,
2013-01-18 22:58:00,41.2,23.6,30.22,NE,45,0.0,7.5,49,0.00,,---,0.00,VWS V12.07,2013-01-19 05:58:00,
2013-01-18 23:03:00,40.9,23.6,30.22,NE,45,0.0,7.5,50,0.00,,---,0.00,VWS V12.07,2013-01-19 06:03:00,
2013-01-18 23:08:00,40.6,23.5,30.22,NE,45,0.0,7.5,50,0.00,,---,0.00,VWS V12.07,2013-01-19 06:08:00,
2013-01-18 23:13:00,40.3,23.4,30.22,NE,45,0.0,7.5,51,0.00,,---,0.00,VWS V12.07,2013-01-19 06:13:00,
2013-01-18 23:18:00,40.2,23.5,30.22,NE,45,0.0,7.5,51,0.00,,---,0.00,VWS V12.07,2013-01-19 06:18:00,
2013-01-18 23:23:00,40.1,23.5,30.22,NE,45,0.0,7.5,51,0.00,,---,0.00,VWS V12.07,2013-01-19 06:23:00,
2013-01-18 23:29:00,39.8,23.4,30.22,NE,45,0.0,7.5,51,0.00,,---,0.00,VWS V12.07,2013-01-19 06:29:00,
2013-01-18 23:34:00,39.5,23.4,30.22,NE,45,0.0,7.5,52,0.00,,---,0.00,VWS V12.07,2013-01-19 06:34:00,
2013-01-18 23:39:00,39.1,23.2,30.22,NE,45,0.0,7.5,53,0.00,,---,0.00,VWS V12.07,2013-01-19 06:39:00,
2013-01-18 23:44:00,38.9,23.1,30.22,NE,45,0.0,7.5,53,0.00,,---,0.00,VWS V12.07,2013-01-19 06:44:00,
2013-01-18 23:49:00,38.8,23.2,30.22,NE,45,0.0,7.5,53,0.00,,---,0.00,VWS V12.07,2013-01-19 06:49:00,
2013-01-18 23:54:00,38.8,23.3,30.22,NNW,328,0.0,7.5,53,0.00,,---,0.00,VWS V12.07,2013-01-19 06:54:00,
2013-01-18 23:59:00,38.9,23.3,30.22,NNW,328,0.0,7.5,53,0.00,,---,0.00,VWS V12.07,2013-01-19 06:59:00,